This demonstration page uses our WeatherBlox Daily Observations layout. Learn more.

Left ArrowRight Arrow

Hourly Observations for December 3, 2019

Temp ( °F °C ) Dew Point ( °F °C ) Humidity (%) Winds ( mph kmh ) Pressure ( in mb ) Visibility ( mi km ) Precip ( " mm )
12:56 am 00:56 Clear 30 -1.1 26 -3.3 85 85 WNW 9 15 29.98 1015 10 16 0.00 0.00
1:56 am 01:56 Clear 30 -1.1 25 -3.9 82 82 WNW 6 9 29.95 1014 10 16 0.00 0.00
2:56 am 02:56 Clear 30 -1.1 24 -4.4 79 79 NW 7 11 29.96 1014 10 16 0.00 0.00
3:56 am 03:56 Clear 27 -2.8 23 -5 85 85 Calm 29.96 1015 10 16 0.00 0.00
4:56 am 04:56 Clear 28 -2.2 24 -4.4 85 85 W 3 6 29.97 1015 10 16 0.00 0.00
5:56 am 05:56 Clear 27 -2.8 23 -5 85 85 W 3 6 29.97 1015 10 16 0.00 0.00
6:56 am 06:56 Clear 27 -2.8 23 -5 85 85 SW 6 9 29.96 1015 10 16 0.00 0.00
7:56 am 07:56 Sunny 31 -0.6 27 -2.8 85 85 WNW 7 11 29.97 1015 10 16 0.00 0.00
8:56 am 08:56 Sunny 34 1.1 28 -2.2 79 79 WNW 7 11 29.97 1015 10 16 0.00 0.00
9:56 am 09:56 Sunny 36 2.2 28 -2.2 73 73 WNW 14 22 29.98 1015 10 16 0.00 0.00
10:56 am 10:56 Sunny 40 4.4 30 -1.1 68 68 WNW 9 15 30.00 1016 10 16 0.00 0.00
11:56 am 11:56 Sunny 44 6.7 31 -0.6 60 60 WNW 10 17 29.98 1015 10 16 0.00 0.00
12:56 pm 12:56 Sunny 47 8.3 32 0 56 56 WNW 10 17 29.97 1015 10 16 0.00 0.00
1:56 pm 13:56 Sunny 49 9.4 33 0.6 55 55 WNW 8 13 29.97 1015 10 16 0.00 0.00
2:56 pm 14:56 Sunny 49 9.4 34 1.1 56 56 W 9 15 29.98 1015 10 16 0.00 0.00
3:56 pm 15:56 Sunny 48 8.9 33 0.6 56 56 W 6 9 29.98 1015 10 16 0.00 0.00
4:56 pm 16:56 Sunny 45 7.2 33 0.6 63 63 W 7 11 30.00 1016 10 16 0.00 0.00
5:56 pm 17:56 Clear 41 5 31 -0.6 67 67 W 9 15 30.02 1017 10 16 0.00 0.00
6:56 pm 18:56 Clear 37 2.8 30 -1.1 76 76 WNW 9 15 30.03 1017 10 16 0.00 0.00
7:56 pm 19:56 Clear 38 3.3 29 -1.7 70 70 WNW 8 13 30.01 1016 10 16 0.00 0.00
8:56 pm 20:56 Clear 37 2.8 29 -1.7 73 73 W 10 17 30.01 1016 10 16 0.00 0.00
9:56 pm 21:56 Clear 38 3.3 29 -1.7 70 70 WNW 8 13 30.01 1016 10 16 0.00 0.00
10:56 pm 22:56 Clear 37 2.8 29 -1.7 73 73 WNW 9 15 30.01 1016 10 16 0.00 0.00
11:56 pm 23:56 Clear 36 2.2 29 -1.7 76 76 W 8 13 30.01 1016 10 16 0.00 0.00

Powered by AerisWeather